Waarnemingen

Advertentie
Mijn weer
Catania/Sigonella, Italië (16459): temperatuur & dauwpunt: 21.04.2018 08:00:00 - 27.04.2018 08:00:00 (CEST)Catania/Sigonella, Italië (16459): windsnelheid: 21.04.2018 08:00:00 - 27.04.2018 08:00:00 (CEST)Catania/Sigonella, Italië (16459): windrichting: 21.04.2018 08:00:00 - 27.04.2018 08:00:00 (CEST)Catania/Sigonella, Italië (16459): luchtdruk: 21.04.2018 08:00:00 - 27.04.2018 08:00:00 (CEST)Catania/Sigonella, Italië (16459): zicht: 21.04.2018 08:00:00 - 27.04.2018 08:00:00 (CEST)
Datum & Tijd tt [°C] td [°C] ff [km/u] ff [kn] dd ppp [hPa] vv [km]
27.04.2018 08:00:00 14,2 13,7 15 8 ZZW 1012,4 8
27.04.2018 07:00:00 13,0 12,0 5 3 N - 9
27.04.2018 06:00:00 12,0 11,0 8 4 ZZW - 9
27.04.2018 05:00:00 12,4 12,1 8 4 WNW 1012,0 13
27.04.2018 04:00:00 14,0 13,0 8 4 NNO - 10
27.04.2018 03:00:00 12,0 12,0 9 5 WZW - 10
27.04.2018 02:00:00 13,0 12,7 4 2 W 1012,5 13
27.04.2018 01:00:00 13,0 13,0 4 2 N - 10
27.04.2018 00:00:00 15,0 15,0 5 3 ZW - 10
26.04.2018 23:00:00 15,8 15,5 5 3 O 1012,8 15
26.04.2018 22:00:00 17,0 17,0 4 2 ZO - 10
26.04.2018 21:00:00 18,0 15,0 16 9 ONO - 10
26.04.2018 20:00:00 20,6 14,0 15 8 NO 1012,1 10
26.04.2018 19:00:00 23,0 7,0 16 9 ONO - 10
26.04.2018 18:00:00 25,0 7,0 21 11 ONO - 10
26.04.2018 17:00:00 26,2 8,2 18 10 ONO 1012,4 10
26.04.2018 16:00:00 26,0 6,0 18 10 O - 10
26.04.2018 15:00:00 25,0 8,0 24 13 ONO - 10
26.04.2018 14:00:00 26,4 8,9 5 3 O 1013,6 10
26.04.2018 13:00:00 27,0 11,0 22 12 O - 10
26.04.2018 12:00:00 25,0 10,0 18 10 O - 10
26.04.2018 11:00:00 26,0 12,8 5 3 O 1014,7 10
26.04.2018 10:00:00 22,0 13,0 5 3 ZZW - 10
26.04.2018 09:00:00 18,0 13,0 13 7 ZW - 10
26.04.2018 08:00:00 12,6 12,6 11 6 W 1015,6 12
26.04.2018 07:00:00 10,0 10,0 11 6 ZW - 10
26.04.2018 06:00:00 10,0 10,0 8 4 W - 10
26.04.2018 05:00:00 10,0 10,0 8 4 W - 10
26.04.2018 04:00:00 11,0 11,0 9 5 W - 10
26.04.2018 03:00:00 12,0 12,0 9 5 W - 10
26.04.2018 02:00:00 13,0 10,5 8 4 W 1016,8 10
26.04.2018 01:00:00 15,0 10,0 8 4 WZW - 10
26.04.2018 00:00:00 16,0 9,0 9 5 WZW - 10
25.04.2018 23:00:00 17,0 11,1 9 5 W 1017,3 12
25.04.2018 22:00:00 16,0 10,0 4 2 W - 10
25.04.2018 21:00:00 16,0 8,0 11 6 Z - 10
25.04.2018 20:00:00 19,0 6,8 9 5 ZO 1016,6 18
25.04.2018 19:00:00 24,0 8,0 13 7 ONO - 10
25.04.2018 18:00:00 26,0 9,0 18 10 NO - 10
25.04.2018 17:00:00 27,6 10,4 22 12 NO 1016,2 20
25.04.2018 16:00:00 29,0 8,0 26 14 ONO - 10
25.04.2018 15:00:00 30,0 3,0 22 12 ONO - 10
25.04.2018 14:00:00 30,6 0,1 11 6 Z 1017,6 20
25.04.2018 13:00:00 30,0 3,0 11 6 WZW - 10
25.04.2018 12:00:00 28,0 2,0 13 7 WZW - 10
25.04.2018 11:00:00 27,0 8,4 8 4 WNW 1018,8 18
25.04.2018 10:00:00 23,0 10,0 9 5 W - 10
25.04.2018 09:00:00 19,0 12,0 11 6 W - 10
25.04.2018 08:00:00 13,4 12,6 9 5 W 1019,1 10
25.04.2018 07:00:00 12,0 12,0 8 4 W - 10
25.04.2018 06:00:00 - - - - - - -
25.04.2018 05:00:00 13,0 12,2 11 6 WZW 1019,1 10
25.04.2018 04:00:00 15,0 14,0 13 7 W - 10
25.04.2018 03:00:00 14,0 13,0 13 7 W - 10
25.04.2018 02:00:00 14,0 12,4 11 6 W 1019,6 10
25.04.2018 01:00:00 14,0 12,0 13 7 W - 10
25.04.2018 00:00:00 13,0 13,0 9 5 WZW - 10
24.04.2018 23:00:00 14,6 13,8 9 5 WZW 1019,8 10
24.04.2018 22:00:00 17,0 15,0 4 2 N - 10
24.04.2018 21:00:00 18,0 13,0 4 2 O - 10
24.04.2018 20:00:00 21,0 9,0 8 4 ZO 1018,9 15
24.04.2018 19:00:00 24,0 8,0 18 10 O - 10
24.04.2018 18:00:00 25,0 7,0 22 12 O - 10
24.04.2018 17:00:00 27,0 7,0 26 14 O 1018,7 15
24.04.2018 16:00:00 27,0 6,0 28 15 O - 10
24.04.2018 15:00:00 - - - - - - -
24.04.2018 14:00:00 29,6 3,6 22 12 O 1019,0 15
24.04.2018 13:00:00 28,0 7,0 5 3 NO - 10
24.04.2018 12:00:00 27,0 6,0 5 3 ZW - 10
24.04.2018 11:00:00 24,2 9,0 5 3 W 1019,9 15
24.04.2018 10:00:00 22,0 9,0 8 4 W - 10
24.04.2018 09:00:00 16,0 11,0 5 3 W - 10
24.04.2018 08:00:00 10,0 9,5 9 5 W 1019,6 15
24.04.2018 07:00:00 10,0 10,0 9 5 W - 10
24.04.2018 06:00:00 11,0 11,0 8 4 WZW - 10
24.04.2018 05:00:00 12,2 12,2 11 6 W 1019,0 15
24.04.2018 04:00:00 14,0 14,0 11 6 W - 10
24.04.2018 03:00:00 13,0 13,0 11 6 W - 10
24.04.2018 02:00:00 14,2 14,2 11 6 W 1019,5 15
24.04.2018 01:00:00 13,0 13,0 9 5 W - 10
24.04.2018 00:00:00 15,0 15,0 9 5 WZW - 10
23.04.2018 23:00:00 15,8 15,3 4 2 W 1019,3 15
23.04.2018 22:00:00 18,0 15,0 5 3 WZW - 10
23.04.2018 21:00:00 19,0 14,0 5 3 NO - 10
23.04.2018 20:00:00 20,0 13,5 9 5 O 1018,0 10
23.04.2018 19:00:00 23,0 13,0 15 8 O - 10
23.04.2018 18:00:00 24,0 10,0 18 10 O - 10
23.04.2018 17:00:00 24,6 10,1 24 13 O 1017,6 10
23.04.2018 16:00:00 25,0 10,0 24 13 O - 10
23.04.2018 15:00:00 26,0 11,0 22 12 O - 10
23.04.2018 14:00:00 26,0 10,2 22 12 O 1018,4 10
23.04.2018 13:00:00 27,0 11,0 18 10 O - 10
23.04.2018 12:00:00 25,0 9,0 8 4 ZZO - 10
23.04.2018 11:00:00 23,8 10,5 4 2 ZW 1019,3 10
23.04.2018 10:00:00 20,0 12,0 4 2 NNO - 10
23.04.2018 09:00:00 16,0 14,0 2 1 W - 10
23.04.2018 08:00:00 11,6 11,6 5 3 WZW 1019,4 10
23.04.2018 07:00:00 9,0 9,0 5 3 ZO - 10
23.04.2018 06:00:00 9,0 8,0 8 4 WZW - 10
23.04.2018 05:00:00 11,0 10,7 8 4 WZW 1018,6 10
23.04.2018 04:00:00 11,0 11,0 9 5 WZW - 10
23.04.2018 03:00:00 11,0 11,0 9 5 W - 10
23.04.2018 02:00:00 12,0 11,7 9 5 WZW 1019,6 10
23.04.2018 01:00:00 12,0 11,0 8 4 WZW - 10
23.04.2018 00:00:00 16,0 16,0 8 4 WNW - 10
22.04.2018 23:00:00 15,0 14,5 8 4 WZW 1019,6 10
22.04.2018 22:00:00 14,0 14,0 8 4 W - 10
22.04.2018 21:00:00 16,0 15,0 9 5 W - 10
22.04.2018 20:00:00 17,2 13,1 9 5 WZW 1018,6 15
22.04.2018 19:00:00 19,0 13,0 11 6 WZW - 10
22.04.2018 18:00:00 19,0 12,0 16 9 W - 10
22.04.2018 17:00:00 18,8 13,7 16 9 W 1019,7 12
22.04.2018 16:00:00 19,0 13,0 24 13 W - 10
22.04.2018 15:00:00 21,0 17,0 11 6 O - 10
22.04.2018 14:00:00 23,0 15,3 22 12 O 1019,4 10
22.04.2018 13:00:00 25,0 15,0 13 7 O - 10
22.04.2018 12:00:00 23,0 15,0 16 9 O - 10
22.04.2018 11:00:00 22,0 14,6 15 8 O 1019,9 15
22.04.2018 10:00:00 21,0 16,0 8 4 O - 10
22.04.2018 09:00:00 17,0 15,0 5 3 NNW - 10
22.04.2018 08:00:00 13,2 12,7 8 4 W 1019,6 10
22.04.2018 07:00:00 10,0 10,0 8 4 ZW - 10
22.04.2018 06:00:00 12,0 11,0 8 4 W - 10
22.04.2018 05:00:00 11,0 10,7 9 5 WZW 1019,5 13
22.04.2018 04:00:00 12,0 12,0 8 4 W - 10
22.04.2018 03:00:00 13,0 13,0 13 7 W - 10
22.04.2018 02:00:00 13,2 12,9 11 6 W 1020,0 13
22.04.2018 01:00:00 13,0 13,0 8 4 WZW - 10
22.04.2018 00:00:00 15,0 15,0 11 6 W - 10
21.04.2018 23:00:00 14,4 14,1 9 5 W 1020,3 13
21.04.2018 22:00:00 15,0 15,0 4 2 NW - 10
21.04.2018 21:00:00 16,0 16,0 5 3 OZO - 10
21.04.2018 20:00:00 17,4 14,5 5 3 ZZW 1019,0 10
21.04.2018 19:00:00 20,0 14,0 5 3 N - 10
21.04.2018 18:00:00 23,0 11,0 22 12 NW - 7
21.04.2018 17:00:00 25,0 11,9 18 10 O 1018,6 7
21.04.2018 16:00:00 25,0 12,0 24 13 ONO - 7
21.04.2018 15:00:00 24,0 11,0 24 13 O - 7
21.04.2018 14:00:00 26,0 9,8 24 13 O 1018,8 8
21.04.2018 13:00:00 28,0 11,0 15 8 O - 10
21.04.2018 12:00:00 27,0 10,0 8 4 OZO - 10
21.04.2018 11:00:00 23,8 11,8 5 3 WNW 1019,3 10
21.04.2018 10:00:00 21,0 15,0 8 4 W - 10
21.04.2018 09:00:00 18,0 16,0 9 5 WZW - 10
21.04.2018 08:00:00 12,4 12,4 9 5 W 1019,2 10

tt = temperatuur
td = dauwpunt
ff = windsnelheid
dd = windrichting
ppp = luchtdruk
vv = zicht

Weerstations in de omgeving